COSMOS 2251 DEB, 33896

Orbit data source: Space-Track

COSMOS 2251 DEB, 33896 is space debris in LEO originally from a launch on Wed, 16 Jun 1993 UTC launched from the Plesetsk Missile And Space Complex (PKMTR). The debris from Iridium 33, an American commercial communications satellite, has been tracked extensively since its accidental collision with the defunct Russian satellite Cosmos 2251 in 2009. This event, occurring at high speed in low Earth orbit (LEO), generated thousands of pieces of space debris, significantly increasing the risk of further collisions. The Iridium 33 debris cloud has impacted space traffic management and orbital debris mitigation strategies, making it a subject of ongoing study in space situational awareness.

Loading next visibility...
Identifier
33896, 1993-036CZ
Orbit
LEO
Country
Flag of CISCIS
Related business
Manufacturer
Unknown
Mission
Spacecraft
Bus & Motor
Unknown
Mass
Unknown
Launch date (UTC)
1993-06-16 (33 years ago)
Launch vehicle
Unknown
Launch site
Plesetsk Missile And Space Complex (PKMTR)
Object type
Payload
Rocket body
Debris
Shape & HBR
Unknown shape, 0.1 m
Radar Cross Section
Small (<0.1 m²)

Expand to show TLE details & history
Last TLE update: 16 hours ago

TLE from 16 hours ago
0 COSMOS 2251 DEB
1 33896U 93036CZ  26071.12159958  .00001273  00000-0  57157-3 0  9997
2 33896  73.7692 354.3643 0125892 156.0739 268.8416 14.19343894880086
Epoch: 2026-03-12T02:55Z
TLE epoch observation values (Epoch: 2026-03-12T02:55:06.203Z)
Latitude
59.31771°
Longitude
170.02413°
Altitude
840.236 km
Speed
7.437 km/s
True Right ascension
01h 34m 18s
True Declination
59° 10' 06"
Sunlit
Object was in daylight at epoch
Visualization orbit readout
Latitude
Unknown
Longitude
Unknown
Altitude
Unknown
Speed
Unknown
Apparent Right ascension
Unknown
Apparent Declination
Unknown
Sunlit
N/A
Visualization observer readout
Local Sidereal Time
23:01:59
Azimuth
Unknown
Elevation
Unknown
Doppler factor
Unknown
Orbital elements
Apogee altitude
915.922 km
Perigee altitude
734.552 km
Semi-major axis
7,203.374 km
Eccentricity
0.01259
Inclination
73.7692°
RAAN
354.3643°
Arg. of periapsis
156.0739°
True anomaly
267.39989°
Mean anomaly
268.8416°
Eccentric anomaly
268.12068°
Mean motion
3.55009 °/min
Orbital period
101.41 mins
BSTAR
0.00057157
Loading maneuver chart data...
Computing Atmospheric mass density...

Documentation

Showing up to 5 results
|